Mobridge, SD

6:35 AM CDT on August 21, 2017 (GMT -0500)
Mobridge Municipal

Weather History for KMBG - November, 2011

Change the Weather History Date:

Sunday, November 20, 2011

  Actual Average Record
Temperature  
Mean Temperature 14 °F 29 °F  
Max Temperature 24 °F 40 °F 68 °F (1917)
Min Temperature 4 °F 19 °F -10 °F (1937)
Degree Days  
Heating Degree Days 51 36  
Month to date heating degree days 607 604  
Since 1 July heating degree days 1233 1378  
Cooling Degree Days 0 0  
Month to date cooling degree days 0 0  
Year to date cooling degree days 684 644  
Moisture  
Dew Point 10 °F    
Average Humidity 82    
Maximum Humidity 96    
Minimum Humidity 68    
Precipitation  
Precipitation T in 0.01 in 0.50 in (1930)
Month to date precipitation 0.03 0.43  
Year to date precipitation 18.87 17.38  
Snow  
Snow T in - - ()
Month to date snowfall 0.4  
Since 1 July snowfall 0.4  
Snow Depth T in    
Sea Level Pressure  
Sea Level Pressure 30.20 in    
Wind  
Wind Speed 10 mph (SE)    
Max Wind Speed 20 mph    
Max Gust Speed 24 mph    
Visibility 9 miles    
Events Snow    
T = Trace of Precipitation, MM = Missing Value Source: NWS Daily Summary

Daily Weather History Graph

Daily Weather History Graph

Search for Another Location

Airport or City:

Trip Planner

Search our weather history database for the weather conditions in past years. The results will help you decide how hot, cold, wet, or windy it might be!

Date:

Astronomy

Nov. 20, 2011 Rise Set
Actual Time 7:47 AM CST 5:06 PM CST
Civil Twilight 7:14 AM CST 5:39 PM CST
Nautical Twilight 6:38 AM CST 6:15 PM CST
Astronomical Twilight 6:03 AM CST 6:50 PM CST
Moon 2:03 AM CST (11/20) 2:09 PM CST (11/20)
Length of Visible Light 10h 24m
Length of Day
9h 19m
Waning Crescent, 27% of the Moon is Illuminated
Nov 20
Waning Crescent
Nov 25
New
Dec 2
First Quarter
Dec 10
Full
Dec 17
Last Quarter

Hourly Weather History & Observations

Time (CST) Temp. Windchill Dew Point Humidity Pressure Visibility Wind Dir Wind Speed Gust Speed Precip Events Conditions
12:52 AM 8.1 °F -3.2 °F 5.0 °F 87% 30.30 in 10.0 mi East 6.9 mph - N/A   Mostly Cloudy
1:02 AM 8.6 °F -2.6 °F 5.0 °F 85% 30.18 in 10.0 mi East 6.9 mph - N/A   Scattered Clouds
1:25 AM 8.6 °F -4.7 °F 5.0 °F 85% 30.18 in 10.0 mi East 9.2 mph - N/A   Mostly Cloudy
1:52 AM 10.9 °F 0.2 °F 8.1 °F 88% 30.29 in 10.0 mi ESE 6.9 mph - N/A   Overcast
2:13 AM 12.2 °F 0.7 °F 8.6 °F 85% 30.18 in 10.0 mi SE 8.1 mph - N/A   Overcast
2:52 AM 10.9 °F 2.9 °F 8.1 °F 88% 30.28 in 10.0 mi ESE 4.6 mph - N/A   Overcast
3:52 AM 10.9 °F 2.9 °F 8.1 °F 88% 30.28 in 10.0 mi South 4.6 mph - N/A   Mostly Cloudy
4:02 AM 8.6 °F 0.1 °F 6.8 °F 92% 30.17 in 10.0 mi SE 4.6 mph - N/A   Scattered Clouds
4:12 AM 8.6 °F 2.0 °F 6.8 °F 92% 30.17 in 10.0 mi SSE 3.5 mph - N/A   Mostly Cloudy
4:27 AM 8.6 °F 2.0 °F 5.0 °F 85% 30.17 in 10.0 mi SE 3.5 mph - N/A   Scattered Clouds
4:52 AM 5.0 °F - 3.0 °F 92% 30.29 in 10.0 mi Calm Calm - N/A   Mostly Cloudy
5:01 AM 8.6 °F 0.1 °F 5.0 °F 85% 30.17 in 10.0 mi East 4.6 mph - N/A   Mostly Cloudy
5:14 AM 10.4 °F 0.8 °F 6.8 °F 85% 30.17 in 10.0 mi East 5.8 mph - N/A   Overcast
5:24 AM 10.4 °F -0.4 °F 6.8 °F 85% 30.17 in 10.0 mi East 6.9 mph - N/A   Overcast
5:52 AM 10.0 °F -1.9 °F 7.0 °F 87% 30.28 in 10.0 mi East 8.1 mph - N/A   Overcast
6:02 AM 10.4 °F -1.5 °F 6.8 °F 85% 30.17 in 10.0 mi East 8.1 mph - N/A   Overcast
6:52 AM 10.9 °F -0.8 °F 7.0 °F 84% 30.28 in 10.0 mi East 8.1 mph - N/A   Overcast
7:52 AM 12.0 °F 2.7 °F 8.1 °F 84% 30.31 in 10.0 mi East 5.8 mph - N/A   Overcast
8:25 AM 14.0 °F 2.9 °F 10.4 °F 86% 30.20 in 10.0 mi South 8.1 mph - N/A   Overcast
8:52 AM 16.0 °F 0.6 °F 12.9 °F 88% 30.30 in 5.0 mi SSE 16.1 mph - 0.00 in Snow Light Snow
9:03 AM 15.8 °F 1.4 °F 12.2 °F 86% 30.20 in 3.0 mi SSE 13.8 mph - 0.00 in Snow Light Snow
9:23 AM 15.8 °F 0.3 °F 12.2 °F 86% 30.20 in 2.5 mi SSE 16.1 mph - 0.00 in Snow Light Snow
9:29 AM 15.8 °F 1.4 °F 12.2 °F 86% 30.20 in 3.0 mi South 13.8 mph - 0.00 in Snow Light Snow
9:52 AM 16.0 °F -0.4 °F 12.0 °F 84% 30.30 in 4.0 mi SSE 18.4 mph - 0.00 in Snow Light Snow
10:39 AM 15.8 °F 1.4 °F 12.2 °F 86% 30.20 in 1.8 mi SSE 13.8 mph - 0.00 in Snow Light Snow
10:50 AM 15.8 °F -1.1 °F 12.2 °F 86% 30.20 in 3.0 mi South 19.6 mph - 0.00 in Snow Light Snow
10:52 AM 15.1 °F -1.1 °F 12.0 °F 88% 30.31 in 4.0 mi South 17.3 mph - 0.00 in Snow Light Snow
11:00 AM 15.8 °F 0.3 °F 10.4 °F 79% 30.20 in 1.8 mi South 16.1 mph - 0.00 in Snow Light Snow
11:17 AM 15.8 °F 0.3 °F 10.4 °F 79% 30.20 in 3.0 mi South 16.1 mph 24.2 mph 0.00 in Snow Light Snow
11:52 AM 17.1 °F 1.0 °F 12.0 °F 81% 30.28 in 10.0 mi South 18.4 mph 23.0 mph 0.00 in   Overcast
12:52 PM 18.0 °F 3.1 °F 12.9 °F 81% 30.25 in 10.0 mi SSE 16.1 mph - N/A   Overcast
1:27 PM 19.4 °F 6.0 °F 14.0 °F 80% 30.13 in 10.0 mi SSE 13.8 mph - N/A   Scattered Clouds
1:52 PM 21.9 °F 7.8 °F 15.1 °F 75% 30.22 in 10.0 mi South 17.3 mph - N/A   Partly Cloudy
2:52 PM 23.0 °F 9.2 °F 14.0 °F 68% 30.20 in 10.0 mi South 17.3 mph - N/A   Clear
3:52 PM 21.9 °F 8.7 °F 14.0 °F 72% 30.19 in 10.0 mi South 15.0 mph - N/A   Clear
4:33 PM 19.4 °F 5.0 °F 15.8 °F 86% 30.09 in 10.0 mi South 16.1 mph - N/A   Mostly Cloudy
4:48 PM 19.4 °F 5.5 °F 15.8 °F 86% 30.09 in 10.0 mi South 15.0 mph - N/A   Overcast
4:52 PM 19.9 °F 7.3 °F 16.0 °F 85% 30.20 in 10.0 mi South 12.7 mph - N/A   Overcast
5:52 PM 19.9 °F 7.9 °F 17.1 °F 89% 30.19 in 10.0 mi South 11.5 mph - N/A   Overcast
6:00 PM 21.2 °F 9.5 °F 17.6 °F 86% 30.08 in 10.0 mi South 11.5 mph - N/A   Overcast
6:26 PM 17.6 °F 8.2 °F 14.0 °F 86% 30.09 in 10.0 mi ESE 6.9 mph - N/A   Overcast
6:48 PM 12.2 °F -0.2 °F 10.4 °F 92% 30.08 in 10.0 mi ESE 9.2 mph - N/A   Scattered Clouds
6:52 PM 14.0 °F 1.2 °F 10.9 °F 88% 30.19 in 10.0 mi ESE 10.4 mph - N/A   Partly Cloudy
7:52 PM 10.9 °F 0.2 °F 9.0 °F 92% 30.18 in 10.0 mi SE 6.9 mph - N/A   Clear
8:52 PM 12.0 °F 1.5 °F 9.0 °F 88% 30.18 in 10.0 mi ESE 6.9 mph - N/A   Clear
9:26 PM 10.4 °F 0.8 °F 8.6 °F 92% 30.08 in 10.0 mi East 5.8 mph - N/A   Partly Cloudy
9:52 PM 12.0 °F 1.5 °F 9.0 °F 88% 30.17 in 10.0 mi East 6.9 mph - N/A   Partly Cloudy
10:52 PM 10.9 °F -0.8 °F 8.1 °F 88% 30.17 in 10.0 mi East 8.1 mph - N/A   Clear
11:52 PM 10.0 °F 3.6 °F 6.1 °F 84% 30.16 in 10.0 mi ENE 3.5 mph - N/A   Clear